Powrót do katalogu

STARLINK-11228

AktywnyŁącznośćVLEO
NORAD 60398·PAYLOAD·🇺🇸 United States

Wystrzelony Aug 10, 2024 z Cape Canaveral Space Force Station

Loading…

Następne Przeloty (najbliższe 24 godziny)

TLE

ŚwieżeSource: CelesTrak SupGP

Epoka: Sep 14, 2026, 21:12 UTC

1 60398C 24141A   26257.88381944  .00048415  00000+0  39882-3 0  2576
2 60398  53.1573 233.6160 0001094  94.6091  55.1956 15.69684912    19

Śledź STARLINK-11228 w czasie rzeczywistym z AllMySat

Download on the App Store